ニート彗星

C/2002 L9 ( NEAT )

English version
Home page
Updated on February 4, 2007

---------------------------------------------------------------------

・ プロフィール

発見日 2002年6月13日
発見光度 17.6等
発見者 Near-Earth-Asteroid Tracking Team (Jet Propulsion Laboratory)

・ 写真集

・ 軌道要素

The following orbital elements are taken from MPC 52905:

Epoch 2004 Apr. 25.0 TT = JDT 2453120.5
T 2004 Apr. 6.0527 TT                                   MPC
q   7.033035             (2000.0)            P               Q
z  +0.000214       Peri.  231.4315      +0.4870305      -0.0586674
 +/-0.000003       Node   110.4573      -0.1545612      +0.9762041
e   0.998498       Incl.   68.4456      -0.8596000      -0.2087670
From 142 observations 2002 June 6-2004 Oct. 10, mean residual 0".6.

・ 星図

・ 光度変化

        m1 = -0.6 + 5 logΔ + 15.0 log r

---------------------------------------------------------------------

軌道要素はMPCのEphemerides and Orbital Elementsに掲載されたものです。
星図は StellaNavigator Ver.2.0 for Windows (アストロアーツ 編著 / アスキー出版局刊) で作成したものです。
光度グラフはComet for Windowsで作成したものです。

---------------------------------------------------------------------

Copyright(C) Seiichi Yoshida (comet@aerith.net). All rights reserved.